RS-44 & BREEZE-KM R/B (44909 NORAD) Tracking and Keplerian Element Data

This shows tracking and keplerian element data for the satellite.

Feedback or suggestion? Click here.




ElementValue
Catalog44909
NameRS-44 & BREEZE-KM R/B
Epoch Orbit9073
Epoch Day339.76869837
Epoch Year2021
RAAN358.9806
Inclination82.5216
Eccentricity0.0218293
Argument of Perigee52.7892
Mean Anonmoly309.2912
Mean Motion12.79711389
Decay Rate1.6E-07
L11 44909U 19096E 21339.76869837 .00000016 00000+0 12685-4 0 9995
L22 44909 82.5216 358.9806 0218293 52.7892 309.2912 12.79711389 90732

Live tracking and technical data element details for RS-44 & BREEZE-KM R/B (NORAD 44909). RS-44 & BREEZE-KM R/B can be tracked NOW for your location showing map with azimuth and elevation plus other details from your city location.

Track the satellite on the map from your city or location and see movement details for azimuth, elevation, latitude, longitude, range, height, and movement on the map or in text.







IsCatalogInMostPopularTable: catalog: 44909, numindb: 1175
Update: records affected: 1



GetName: 44909 RS-44 & BREEZE-KM R/B

Hit Count: updated at: Wed, 08 Dec 2021 14:57:25 GMT